Location: Haliburton Scout Reserve
(45.0900°N, 78.3200°W)
Time: 09:06:36
(UTC-05:00)

Vanguard 3 - Visible Passes

Search period start: 28 November 2023 00:00
Search period end: 08 December 2023 00:00
Orbit: 507 x 3241 km, 33.3° (Epoch: 28 November)

Date Brightness Start Highest point End Pass type
(mag) Time Alt. Az. Time Alt. Az. Time Alt. Az.
02 Dec 10.7 19:54:44 10° SSE 19:55:48 11° SSE 19:55:48 11° SSE visible
03 Dec 10.6 20:44:03 10° SSW 20:47:45 16° S 20:47:45 16° S visible
04 Dec 10.5 19:27:56 10° S 19:34:50 15° SSE 19:35:23 15° SSE visible
04 Dec 10.8 21:37:22 10° SW 21:39:42 15° SSW 21:39:42 15° SSW visible
05 Dec 10.3 20:19:17 10° SSW 20:27:19 22° S 20:27:19 22° S visible
06 Dec 10.4 19:02:25 10° S 19:12:04 19° SSE 19:14:54 17° SE visible
06 Dec 10.4 21:13:06 10° SW 21:19:14 23° SSW 21:19:14 23° SSW visible
07 Dec 10.8 17:48:31 10° SSE 17:54:00 12° SE 17:58:56 10° SE visible
07 Dec 10.1 19:54:38 10° SSW 20:06:48 28° SSE 20:06:48 28° SSE visible
07 Dec 10.8 22:08:06 10° WSW 22:11:08 17° SW 22:11:08 17° SW visible
